Weather History for Springfield, VT

Change the Weather History Date:

Wednesday, February 20, 2013

  Actual Average Record
Temperature  
Mean Temperature 28 °F 24 °F  
Max Temperature 33 °F 34 °F 48 °F (2001)
Min Temperature 22 °F 14 °F 3 °F (2007)
Degree Days  
Heating Degree Days 37 41  
Month to date heating degree days 857 859  
Since 1 July heating degree days 4581 5131  
Moisture  
Dew Point 18 °F    
Average Humidity 71    
Maximum Humidity 92    
Minimum Humidity 50    
Precipitation  
Precipitation T in 0.10 in 0.14 in (2002)
Month to date precipitation 0.87 1.97  
Year to date precipitation 2.20 4.89  
Sea Level Pressure  
Sea Level Pressure 29.65 in    
Wind  
Wind Speed 11 mph (West)    
Max Wind Speed 20 mph    
Max Gust Speed 33 mph    
Visibility 7 miles    
Events Fog , Snow    
T = Trace of Precipitation, MM = Missing Value Source: NWS Daily Summary

Daily Weather History Graph

Daily Weather History Graph

Search for Another Location

Airport:

Trip Planner

Search our weather history database for the weather conditions in past years. The results will help you decide how hot, cold, wet, or windy it might be!

Date:

Astronomy

Feb. 20, 2013 Rise Set
Actual Time 6:40 AM EST 5:27 PM EST
Civil Twilight 6:11 AM EST 5:56 PM EST
Nautical Twilight 5:38 AM EST 6:30 PM EST
Astronomical Twilight 5:05 AM EST 7:03 PM EST
Moon 12:41 PM EST (2/20) 3:03 AM EST (2/20)
Length of Visible Light 11h 45m
Length of Day
10h 47m
Waxing Gibbous, 76% of the Moon is Illuminated
Feb 20
Waxing Gibbous
Feb 25
Full
Mar 4
Last Quarter
Mar 11
New
Mar 19
First Quarter

Hourly Weather History & Observations

Time (EST) Temp. Windchill Dew Point Humidity Pressure Visibility Wind Dir Wind Speed Gust Speed Precip Events Conditions
12:13 AM 32.0 °F - 30.2 °F 93% 29.56 in 0.2 mi Calm Calm - N/A Fog Fog
12:19 AM 32.0 °F - 30.2 °F 93% 29.55 in 0.2 mi Calm Calm - N/A Fog Fog
12:23 AM 32.0 °F - 30.2 °F 93% 29.55 in 0.2 mi Calm Calm - N/A Fog Fog
12:54 AM 32.0 °F 28.7 °F 30.9 °F 96% 29.57 in 0.2 mi SSW 3.5 mph - N/A Fog Fog
1:04 AM 32.0 °F - 30.2 °F 93% 29.55 in 0.5 mi Calm Calm - N/A Fog Fog
1:21 AM 32.0 °F 21.6 °F 30.2 °F 93% 29.56 in 1.0 mi West 15.0 mph 19.6 mph N/A   Overcast
1:27 AM 33.8 °F 25.8 °F 30.2 °F 87% 29.56 in 3.0 mi WNW 10.4 mph 19.6 mph 0.00 in Snow Light Snow
1:54 AM 32.0 °F 22.5 °F 26.1 °F 79% 29.58 in 10.0 mi West 12.7 mph 23.0 mph 0.00 in   Overcast
2:54 AM 32.0 °F 22.5 °F 21.9 °F 66% 29.59 in 10.0 mi West 12.7 mph 21.9 mph N/A   Mostly Cloudy
3:54 AM 30.9 °F 20.2 °F 21.0 °F 67% 29.60 in 10.0 mi West 15.0 mph 23.0 mph N/A   Overcast
4:54 AM 28.9 °F 16.9 °F 16.0 °F 58% 29.62 in 10.0 mi West 17.3 mph 27.6 mph N/A   Overcast
5:54 AM 28.0 °F 20.0 °F 15.1 °F 58% 29.62 in 10.0 mi WSW 8.1 mph 19.6 mph N/A   Mostly Cloudy
6:54 AM 26.1 °F 20.5 °F 15.1 °F 63% 29.63 in 10.0 mi Variable 4.6 mph 17.3 mph N/A   Partly Cloudy
7:54 AM 27.0 °F - 14.0 °F 58% 29.65 in 10.0 mi Calm Calm - N/A   Overcast
8:54 AM 27.0 °F 21.6 °F 15.1 °F 61% 29.65 in 10.0 mi Variable 4.6 mph 16.1 mph N/A   Overcast
9:54 AM 27.0 °F 16.1 °F 14.0 °F 58% 29.66 in 10.0 mi West 12.7 mph 20.7 mph N/A   Overcast
10:54 AM 28.0 °F 17.5 °F 14.0 °F 56% 29.66 in 10.0 mi WSW 12.7 mph 25.3 mph N/A   Overcast
11:54 AM 28.9 °F 16.1 °F 14.0 °F 54% 29.65 in 10.0 mi West 19.6 mph 28.8 mph N/A   Overcast
12:54 PM 28.9 °F 19.2 °F 14.0 °F 54% 29.64 in 10.0 mi WSW 11.5 mph 26.5 mph N/A   Mostly Cloudy
1:54 PM 28.0 °F 15.7 °F 12.0 °F 51% 29.65 in 10.0 mi West 17.3 mph 29.9 mph N/A   Overcast
2:54 PM 28.0 °F 16.1 °F 12.9 °F 53% 29.65 in 10.0 mi WSW 16.1 mph 29.9 mph N/A   Overcast
3:54 PM 27.0 °F 15.6 °F 12.9 °F 56% 29.67 in 10.0 mi WSW 13.8 mph 21.9 mph N/A   Overcast
4:54 PM 26.1 °F 15.0 °F 10.9 °F 53% 29.68 in 10.0 mi West 12.7 mph 19.6 mph N/A   Overcast
5:54 PM 25.0 °F 14.2 °F 10.9 °F 55% 29.70 in 10.0 mi WNW 11.5 mph 16.1 mph N/A   Overcast
6:54 PM 24.1 °F 13.7 °F 10.9 °F 57% 29.73 in 10.0 mi West 10.4 mph 21.9 mph N/A   Mostly Cloudy
7:54 PM 24.1 °F 16.0 °F 10.9 °F 57% 29.73 in 10.0 mi Variable 6.9 mph - N/A   Mostly Cloudy
8:51 PM 24.8 °F 14.0 °F 10.4 °F 54% 29.72 in 7.0 mi West 11.5 mph 26.5 mph 0.00 in Snow Light Snow
8:54 PM 24.1 °F 10.1 °F 12.0 °F 60% 29.75 in 8.0 mi West 18.4 mph 25.3 mph 0.00 in Snow Light Snow
9:36 PM 23.0 °F 13.1 °F 14.0 °F 68% 29.74 in 2.5 mi WSW 9.2 mph - 0.00 in Snow Light Snow
10:54 PM 24.1 °F 12.5 °F 12.9 °F 62% 29.77 in 5.0 mi West 12.7 mph 25.3 mph 0.00 in Snow Light Snow
11:54 PM 24.1 °F 13.1 °F 10.9 °F 57% 29.78 in 9.0 mi West 11.5 mph 23.0 mph 0.00 in Snow Light Snow